Wind_Speed
19 23 20 16 17 12 11 9 8 8 7 3 2 5 8 12 11 11 12 14 18 20 18 16 18 17 18 20 22 22 22 22 18
24 30 21 21 18 12 6 5 4 7 7 5 3 3 8 10 13 14 14 14 17 18 16 16 19 18 21 22 20 19 21 20 17
27 32 23 16 17 18 13 2 2 2 2 1 1 3 6 9 11 15 14 15 14 17 15 15 17 16 19 19 18 18 19 18 17
22 38 31 23 19 14 13 4 4 1 0 2 1 3 5 5 8 10 11 11 11 12 12 12 13 13 14 15 13 13 14 14 14
24 37 38 25 21 18 11 8 6 2 3 2 1 2 3 4 4 5 5 7 9 11 9 8 9 10 10 11 11 11 11 11 11
24 32 41 31 21 21 12 10 7 4 4 4 2 2 4 5 6 4 3 4 6 8 7 7 7 8 10 10 10 9 9 8 8
26 25 39 35 22 20 13 9 9 5 4 6 4 5 5 7 8 6 3 2 3 5 5 5 5 7 8 8 8 7 6 6 6
11 34 35 32 15 16 13 11 11 9 6 5 4 2 4 6 5 5 5 3 0 2 4 5 7 6 5 5 6 7 7 6 7
19 30 29 25 15 10 15 12 13 12 9 5 6 6 4 2 1 2 1 2 2 2 4 5 6 6 6 6 7 8 8 8 9
22 23 37 24 18 16 15 16 16 16 15 12 9 9 9 7 6 4 4 4 3 5 7 7 8 9 8 9 11 12 12 11 11
31 29 30 23 20 18 18 15 15 17 20 19 16 14 14 12 11 10 9 9 9 10 11 11 12 13 13 13 14 14 15 16 14
19 25 26 26 25 25 24 21 19 18 19 21 21 20 18 17 14 14 14 13 14 14 15 15 15 14 15 15 17 18 17 19 19
28 29 31 37 30 27 26 26 23 20 15 13 14 16 20 21 19 17 18 19 18 19 19 16 16 17 24 29 27 25 23 21 21
36 40 35 35 32 30 29 29 26 20 15 12 8 7 9 13 18 20 22 24 23 21 22 22 21 18 25 28 36 41 33 28 25
30 36 34 33 24 22 25 22 20 16 13 10 11 9 8 10 13 13 16 22 27 27 28 27 27 25 24 22 29 37 35 40 29
26 41 37 29 22 20 19 16 15 13 11 9 10 13 17 17 18 18 20 22 24 26 26 28 27 24 25 23 22 32 32 25 29
43 39 34 28 22 16 15 15 13 12 13 14 15 16 18 18 19 22 22 23 26 26 28 29 29 26 24 25 26 30 32 28 21
36 38 32 25 19 17 18 16 15 15 16 18 21 20 20 20 20 20 22 21 23 24 25 26 26 25 27 28 29 29 31 25 18
23 33 29 24 20 18 17 17 17 19 23 25 23 21 21 22 20 17 18 20 21 23 21 16 17 20 22 25 28 29 30 31 28
17 25 24 21 17 16 17 19 21 24 25 23 23 21 20 21 18 15 15 15 14 12 11 9 10 11 14 18 22 20 21 22 22
Wind_Direction
222 203 179 174 157 147 151 161 172 184 212 230 229 247 277 274 262 255 259 262 263 255 253 253 253 257 263 263 265 265 268 266 266
216 204 203 192 200 226 208 153 168 167 189 201 215 275 269 265 267 266 267 270 255 254 255 251 255 259 261 262 261 263 259 262 256
228 207 209 200 202 222 231 208 157 52 101 212 299 286 273 267 261 266 269 266 256 257 259 256 254 252 257 266 261 259 254 252 256
231 217 218 214 204 217 208 217 170 95 78 230 291 310 299 284 269 272 270 267 258 259 261 266 251 252 241 252 260 259 256 252 251
247 224 220 213 203 209 206 188 156 120 111 135 335 320 350 317 288 281 276 268 262 257 243 248 251 254 261 257 253 253 243 241 240
216 226 214 208 202 207 190 176 162 133 122 118 93 121 82 42 20 358 315 278 273 269 246 232 244 253 251 247 246 246 247 249 257
236 223 216 205 206 211 191 186 194 194 163 123 120 106 100 64 49 37 29 306 279 269 249 237 258 279 268 251 237 225 236 245 244
220 191 191 193 206 203 193 190 204 199 181 169 164 131 94 73 80 74 60 66 201 240 247 273 293 288 259 228 230 242 238 232 226
195 195 206 205 205 209 211 207 212 213 208 217 203 214 200 199 126 115 103 99 130 202 223 239 255 287 278 245 228 237 246 244 235
212 194 207 212 207 208 230 230 234 233 226 226 233 229 237 223 233 231 235 252 240 240 234 231 236 244 249 245 255 265 262 254 253
206 209 209 211 214 220 238 231 239 244 241 240 242 244 245 244 242 248 252 256 248 245 247 245 241 236 237 247 255 257 261 262 257
236 203 228 228 230 226 227 227 238 246 240 242 245 248 250 252 252 255 265 267 265 257 256 253 254 257 264 257 252 259 264 261 255
221 206 226 223 241 234 238 234 240 245 247 249 249 248 248 250 255 257 262 265 265 272 272 261 263 254 273 265 279 270 258 254 256
221 232 221 214 241 242 232 234 240 253 259 270 267 245 251 256 257 258 261 265 266 264 267 265 249 263 289 265 272 265 260 258 245
220 222 213 232 218 208 218 230 232 236 249 265 283 291 277 266 267 259 259 260 263 267 270 271 255 274 281 255 272 258 258 250 263
212 223 219 211 201 199 202 215 229 242 264 277 281 287 290 284 279 275 264 265 261 265 267 270 270 271 261 266 275 259 252 262 273
212 207 204 197 196 202 214 219 229 249 269 279 286 288 285 280 279 280 273 267 266 264 265 266 273 272 269 262 270 268 244 256 272
199 197 190 191 205 213 211 217 232 250 267 282 291 288 286 283 281 279 278 277 276 274 270 268 271 269 264 260 260 269 238 246 272
164 194 193 203 206 211 225 240 253 272 278 283 286 282 281 282 280 277 273 271 271 274 279 270 258 260 266 268 263 262 254 255 252
162 204 193 193 203 219 238 254 262 270 276 279 278 278 281 281 280 273 267 267 267 269 272 267 266 273 270 262 258 255 250 250 250
Height
3154 3157 3158 3161 3165 3168 3169 3170 3171 3171 3172 3172 3171 3171 3170 3170 3170 3171 3172 3172 3172 3173 3175 3176 3178 3179 3179 3179 3179 3178 3178 3179 3179
3151 3153 3154 3160 3163 3166 3168 3169 3170 3169 3170 3170 3169 3168 3168 3167 3167 3167 3168 3168 3168 3169 3170 3171 3172 3173 3174 3174 3174 3173 3173 3173 3174
3148 3150 3153 3158 3161 3164 3167 3167 3167 3165 3166 3167 3166 3166 3166 3165 3164 3163 3163 3163 3164 3165 3166 3165 3166 3169 3167 3167 3169 3169 3168 3169 3170
3146 3147 3150 3155 3158 3161 3163 3164 3163 3163 3164 3164 3163 3163 3163 3162 3161 3160 3160 3160 3161 3162 3162 3162 3163 3164 3166 3166 3165 3165 3165 3165 3165
3138 3139 3145 3152 3155 3158 3158 3159 3160 3161 3161 3161 3162 3161 3161 3160 3159 3158 3158 3159 3159 3159 3159 3159 3160 3160 3161 3162 3163 3163 3163 3164 3164
3134 3136 3140 3148 3152 3153 3155 3156 3157 3158 3159 3159 3160 3160 3160 3159 3158 3157 3157 3157 3158 3158 3159 3159 3159 3159 3159 3160 3161 3162 3162 3163 3164
3132 3135 3136 3144 3146 3149 3152 3153 3154 3156 3158 3157 3158 3159 3158 3157 3156 3157 3156 3157 3157 3157 3158 3159 3159 3158 3158 3159 3160 3160 3161 3162 3163
3126 3130 3135 3139 3143 3145 3148 3150 3152 3153 3154 3155 3156 3156 3156 3155 3156 3155 3155 3156 3156 3156 3157 3158 3159 3158 3158 3158 3160 3161 3161 3160 3160
3126 3128 3131 3137 3139 3141 3146 3147 3149 3151 3151 3152 3153 3154 3154 3154 3154 3153 3153 3154 3154 3154 3155 3156 3157 3158 3159 3160 3159 3160 3160 3160 3159
3120 3128 3127 3135 3135 3138 3142 3145 3147 3148 3148 3148 3149 3150 3151 3151 3151 3152 3152 3152 3152 3152 3152 3152 3153 3154 3155 3156 3158 3159 3158 3158 3158
3117 3122 3128 3130 3132 3135 3137 3141 3142 3143 3144 3144 3144 3145 3146 3147 3147 3148 3149 3149 3149 3149 3149 3149 3148 3149 3151 3152 3153 3154 3155 3156 3155
3111 3115 3123 3125 3128 3131 3133 3135 3137 3138 3138 3139 3139 3140 3141 3143 3143 3144 3144 3145 3145 3144 3144 3143 3144 3145 3147 3147 3148 3149 3150 3151 3152
3108 3107 3109 3113 3120 3124 3127 3130 3131 3133 3134 3134 3134 3133 3134 3135 3136 3138 3138 3138 3139 3139 3138 3138 3139 3139 3140 3142 3146 3145 3144 3144 3146
3105 3105 3105 3109 3116 3118 3121 3124 3126 3128 3129 3130 3130 3130 3130 3130 3131 3131 3132 3131 3131 3132 3132 3132 3132 3133 3134 3136 3136 3136 3137 3137 3136
3099 3102 3103 3106 3110 3112 3116 3120 3122 3122 3124 3124 3124 3124 3126 3126 3125 3126 3126 3124 3123 3124 3124 3125 3125 3126 3127 3128 3126 3125 3129 3129 3121
3089 3099 3099 3101 3105 3108 3111 3113 3115 3116 3117 3118 3119 3119 3119 3120 3119 3119 3119 3118 3117 3117 3117 3116 3117 3118 3120 3119 3117 3117 3120 3121 3118
3084 3089 3093 3096 3100 3103 3106 3108 3110 3111 3112 3114 3114 3113 3113 3113 3113 3112 3111 3110 3109 3109 3108 3107 3109 3109 3110 3110 3108 3107 3110 3111 3110
3081 3084 3088 3093 3094 3098 3101 3104 3105 3106 3107 3107 3106 3105 3105 3105 3104 3104 3103 3102 3101 3101 3100 3100 3100 3100 3100 3099 3099 3100 3101 3103 3104
3055 3081 3083 3087 3089 3093 3097 3099 3100 3101 3100 3099 3099 3099 3100 3099 3098 3098 3097 3095 3094 3093 3092 3092 3092 3091 3091 3091 3091 3092 3093 3095 3098
3057 3082 3079 3080 3083 3086 3090 3093 3093 3093 3092 3092 3092 3091 3092 3092 3093 3092 3091 3090 3088 3087 3086 3087 3086 3085 3084 3083 3084 3084 3085 3087 3090